Weather in Ostrovskoye

Russia / Nizhny Novgorod Oblast'     55°52′50″N   45°08′37″E
temp.,
°C
wind,
m/s
gust,
m/s
humid.,
%
clouds,
%
prec.,
mm/h
press.,
hPa
HPBL,
m
12 may, wed
wed1200:00+14ene239597 1.6 102743
03:00+12ene22945 1.9 102722
06:00+14ne278827 0.0 1027181
09:00+19e57727 0.0 1026488
12:00+23ese57537 0.0 10261233
15:00+24e685113 0.0 10242694
18:00+20ese4966100 0.0 1024213
21:00+18ese3470100 0.0 102477
13 may, thu
thu1300:00+16se496894 0.0 1024178
03:00+15se377412 0.0 1024146
06:00+15ese398052 0.0 1024290
09:00+16ese51178100 0.0 1023372
12:00+21ese81158100 0.0 1021830
15:00+16se51089100 1.9 1021471
18:00+17se61485100 0.5 1019731
21:00+15se5139399 3.3 1019364
14 may, fri
fri1400:00+14sse410930 0.8 1019205
03:00+13ssw36950 0.8 1019109
06:00+15ssw249166 0.0 1020141
09:00+19ssw3475100 0.0 1020496
12:00+22s3564100 0.0 10201045
15:00+23sse45606 0.0 10201374
18:00+22ese34735 0.1 1018143
21:00+18se3688100 0.1 101782
15 may, sat
sat1500:00+16s3983100 0.0 1017169
03:00+16sse378699 0.0 1017123
06:00+17sse388478 0.0 1017201
09:00+22s61161100 0.0 1016467
12:00+24s7145460 0.0 1016871
15:00+25s8145252 0.0 10151092
18:00+22s613605 0.0 1014438
21:00+17s5167773 0.0 1014318
16 may, sun
sun1600:00+16s4157798 0.0 1014280
03:00+16s5156993 0.0 1013296
06:00+16s4107763 0.0 1014234
09:00+20ssw5767100 0.0 1014434
12:00+23ssw575999 0.0 1014899
15:00+25ssw585547 0.0 10131547
18:00+21wsw3775100 0.8 1013206
21:00+18sw2283100 0.8 101429